Weather History for Ireland West Airport Knock, Ireland

Change the Weather History Date:

Sunday, October 21, 2012

  Actual Average Record
Temperature  
Mean Temperature 50 °F -  
Max Temperature 55 °F - - ()
Min Temperature 45 °F - - ()
Degree Days  
Heating Degree Days 15    
Moisture  
Dew Point 47 °F    
Average Humidity 90    
Maximum Humidity 100    
Minimum Humidity 75    
Precipitation  
Precipitation 0.00 in - - ()
Sea Level Pressure  
Sea Level Pressure 30.02 in    
Wind  
Wind Speed 10 mph ()    
Max Wind Speed 14 mph    
Max Gust Speed -    
Visibility 4.3 miles    
Events Fog    
T = Trace of Precipitation, MM = Missing Value Source: Averaged Metar Reports

Daily Weather History Graph

Daily Weather History Graph

Search for Another Location

Airport:

Trip Planner

Search our weather history database for the weather conditions in past years. The results will help you decide how hot, cold, wet, or windy it might be!

Date:

Astronomy

Oct. 21, 2012 Rise Set
Actual Time 8:14 AM IST 6:23 PM IST
Civil Twilight 7:38 AM IST 6:59 PM IST
Nautical Twilight 6:57 AM IST 7:40 PM IST
Astronomical Twilight 6:16 AM IST 8:21 PM IST
Moon 2:46 PM IST (10/21) 11:45 PM IST (10/21)
Length of Visible Light 11h 21m
Length of Day
10h 08m
Waxing Crescent, 42% of the Moon is Illuminated
Oct 21
Waxing Crescent
Oct 22
First Quarter
Oct 29
Full
Nov 7
Last Quarter
Nov 13
New

Hourly Weather History & Observations

Time (IST) Temp. Windchill Dew Point Humidity Pressure Visibility Wind Dir Wind Speed Gust Speed Precip Events Conditions
1:00 AM 47 °F - 46 °F 97% 29.95 in - SSE 8.9 mph - -  
7:00 AM 47 °F - 47 °F 99% 30.00 in - SE 11.2 mph - -  
7:30 AM 46.4 °F 41.1 °F 46.4 °F 100% 29.98 in 0.2 mi SE 11.5 mph - N/A Fog Fog
8:00 AM 46.4 °F 41.1 °F 46.4 °F 100% 29.98 in 0.1 mi SE 11.5 mph - N/A Fog Fog
8:30 AM 46.4 °F 41.5 °F 46.4 °F 100% 29.98 in 0.1 mi SE 10.4 mph - N/A Fog Fog
9:00 AM 46.4 °F 41.1 °F 46.4 °F 100% 29.98 in 0.1 mi SE 11.5 mph - N/A Fog Fog
9:30 AM 46.4 °F 40.7 °F 46.4 °F 100% 30.01 in 0.2 mi SE 12.7 mph - N/A Fog Fog
10:00 AM 46.4 °F 40.7 °F 46.4 °F 100% 30.01 in 0.3 mi SE 12.7 mph - N/A Fog Fog
10:30 AM 46.4 °F 40.7 °F 46.4 °F 100% 30.01 in 0.1 mi SE 12.7 mph - N/A Fog Fog
11:00 AM 48.2 °F - 48.2 °F 100% 30.04 in 3.7 mi SE 10.4 mph - N/A   Overcast
11:30 AM 50.0 °F - 50.0 °F 100% 30.04 in 6.2 mi SE 10.4 mph - N/A   Scattered Clouds
12:00 PM 51.8 °F - 50.0 °F 94% 30.04 in 6.2 mi SE 11.5 mph - N/A   Mostly Cloudy
12:30 PM 53.6 °F - 48.2 °F 82% 30.04 in 6.2 mi SE 12.7 mph - N/A   Scattered Clouds
1:00 PM 53 °F - 47 °F 75% 30.04 in 25 mi SE 13.4 mph - -   Partly Cloudy
1:00 PM 53.6 °F - 48.2 °F 82% 30.04 in 6.2 mi SE 12.7 mph - N/A   Scattered Clouds
1:30 PM 51.8 °F - 48.2 °F 88% 30.04 in 6.2 mi SE 13.8 mph - N/A   Mostly Cloudy
2:00 PM 53.6 °F - 46.4 °F 77% 30.01 in 6.2 mi SE 13.8 mph - N/A   Mostly Cloudy
2:30 PM 53.6 °F - 46.4 °F 77% 30.04 in 6.2 mi SE 13.8 mph - N/A   Mostly Cloudy
3:00 PM 53.6 °F - 48.2 °F 82% 30.04 in 6.2 mi SE 11.5 mph - N/A   Mostly Cloudy
3:30 PM 55.4 °F - 48.2 °F 77% 30.01 in 6.2 mi SE 11.5 mph - N/A   Mostly Cloudy
4:00 PM 53.6 °F - 46.4 °F 77% 30.01 in 6.2 mi SE 13.8 mph - N/A   Mostly Cloudy
4:30 PM 53.6 °F - 48.2 °F 82% 30.01 in 6.2 mi SE 12.7 mph - N/A   Mostly Cloudy
5:00 PM 51.8 °F - 48.2 °F 88% 30.01 in 6.2 mi SE 11.5 mph - N/A   Mostly Cloudy
5:30 PM 51.8 °F - 48.2 °F 88% 30.04 in 6.2 mi SE 10.4 mph - N/A   Mostly Cloudy
6:00 PM 51.8 °F - 48.2 °F 88% 30.04 in 6.2 mi SE 9.2 mph - N/A   Mostly Cloudy
6:30 PM 50.0 °F - 48.2 °F 94% 30.04 in 6.2 mi ESE 8.1 mph - N/A   Partly Cloudy
7:00 PM 50 °F - 47 °F 86% 30.07 in 25 mi ESE 8.9 mph - -   Scattered Clouds
7:00 PM 50.0 °F - 46.4 °F 87% 30.04 in 6.2 mi ESE 9.2 mph - N/A   Partly Cloudy